Regional Weather Roundup
Issued by NWS

Home | Current Version | Previous Version | Graphics & Text | Print | Product List | Glossary On
Versions: 1 2 3 4 5 6 7 8 9 10 11 12 13 14 15 16 17 18 19 20 21 22 23 24 25 26 27 28 29 30 31 32 33 34 35 36 37 38 39 40 41 42 43 44 45 46 47 48 49 50
000
ASUS43 KBIS 211310
RWRND
NORTH DAKOTA REGIONAL WEATHER ROUNDUP
NATIONAL WEATHER SERVICE EASTERN NORTH DAKOTA/GRAND FORKS ND
800 AM CDT SAT APR 21 2018

  NOTE: "FAIR" INDICATES FEW OR NO CLOUDS BELOW 12,000 FEET WITH NO
  SIGNIFICANT WEATHER AND/OR OBSTRUCTIONS TO VISIBILITY.

NDZ001>003-009>011-017-211400-
...NORTHWEST NORTH DAKOTA...

CITY           SKY/WX    TMP DP  RH WIND       PRES   REMARKS
WILLISTON      FAIR      40  36  86 S6        30.14F
MINOT          FAIR      42  36  79 S12       30.21R
MINOT AFB      FAIR      40  36  87 S12       30.19S WCI  33
$$

NDZ018>021-031>035-040>046-211400-
...SOUTHWEST NORTH DAKOTA...

CITY           SKY/WX    TMP DP  RH WIND       PRES   REMARKS
BISMARCK       FAIR      38  36  92 CALM      30.28R
DICKINSON      CLOUDY    41  37  86 S21G28    30.16S
GARRISON         N/A     36  34  92 SE9       30.22S WCI  29
HETTINGER      CLOUDY    38  36  92 S13       30.22S WCI  30
$$

NDZ004>008-012>016-024-026-027-054-211400-
...NORTHEAST NORTH DAKOTA...

CITY           SKY/WX    TMP DP  RH WIND       PRES   REMARKS
GRAND FORKS    CLOUDY    35  35 100 S10       30.35S WCI  27
GRAND FORKS AF CLOUDY    37  37  99 S9        30.34R WCI  30
DEVILS LAKE    FAIR      35  33  92 SE6       30.32R WCI  30
$$

NDZ022-023-025-028>030-036>039-047>053-211400-
...SOUTHEAST NORTH DAKOTA...

CITY           SKY/WX    TMP DP  RH WIND       PRES   REMARKS
JAMESTOWN      FAIR      37  36  96 S6        30.33R WCI  32
FARGO          PTSUNNY   37  33  85 S8        30.38R WCI  31
WAHPETON       FAIR      34  32  93 SE6       30.40R WCI  29
$$




USA.gov is the U.S. government's official web portal to all federal, state and local government web resources and services.